Theta_e
344 344 345 345 346 347 349 351 351 351 352 351 351 352 352 353 349 348 349 344 338 337 330 324 329 336 340 342 341 339 337 335 336 334 332 333 331 329 332 334 334 333 334 333 333 334 332 331 333 333 332 330 328 328 327 328 330 330 330 331 331 329 329
344 344 344 344 346 347 349 351 352 353 355 355 354 353 353 352 348 347 347 341 335 334 326 323 331 336 339 341 340 339 337 336 337 334 331 332 333 333 334 334 332 330 332 333 332 331 331 333 335 334 331 328 326 325 325 326 328 329 330 331 330 329 330
345 345 345 345 345 347 348 351 351 353 356 355 353 354 354 351 347 346 345 338 333 331 325 325 334 338 339 340 340 339 338 337 336 336 335 335 336 335 333 331 331 331 333 334 334 333 333 333 333 332 331 329 327 326 326 327 328 329 330 330 329 328 330
344 345 346 345 346 347 348 350 351 353 355 355 353 354 353 349 346 347 344 336 332 328 324 328 337 341 341 340 340 340 340 339 337 335 335 335 334 332 330 332 334 334 334 334 334 333 332 333 332 333 332 331 330 329 329 330 331 331 330 328 327 326 328
346 345 346 348 346 346 347 349 350 351 352 353 353 353 352 347 346 347 343 337 333 327 323 331 340 342 342 342 342 341 341 340 338 335 332 333 334 332 330 332 334 334 333 333 332 332 332 332 333 333 333 332 332 331 331 332 333 333 332 330 329 328 329
348 346 347 347 346 347 346 346 348 349 350 351 350 349 349 348 348 348 344 339 336 331 330 337 342 342 343 342 341 341 340 338 337 334 332 332 331 330 331 334 334 333 333 333 331 329 327 327 328 330 331 330 331 332 332 331 331 331 331 332 331 329 330
344 345 348 347 346 347 345 344 346 348 350 352 350 347 348 349 350 349 346 342 340 339 340 342 343 343 343 342 340 340 339 338 336 335 334 333 332 332 333 334 333 332 333 332 331 328 325 324 325 326 328 328 329 331 331 331 330 330 331 332 332 331 330
339 342 345 346 348 348 346 345 344 345 350 352 351 349 349 350 350 348 346 345 345 345 345 344 343 342 340 338 338 339 339 337 338 337 336 336 335 335 335 334 333 333 332 332 333 333 331 329 328 326 326 327 327 328 329 328 330 331 331 331 331 332 331
338 339 342 343 346 349 349 348 347 346 349 351 350 349 348 348 349 346 345 347 346 346 345 344 343 341 337 336 337 338 337 336 337 337 337 336 336 336 335 334 333 332 331 331 333 334 332 331 331 329 328 327 327 327 328 328 329 331 331 331 331 331 330
336 338 342 343 342 346 348 348 349 348 349 351 350 348 345 346 347 346 345 347 345 344 344 343 344 344 341 341 341 339 336 335 336 337 337 336 336 335 335 333 332 332 332 331 331 331 330 331 331 330 329 328 328 329 330 330 330 330 330 330 330 328 329
336 337 341 341 340 347 348 346 348 347 347 350 348 345 345 347 347 344 346 347 344 343 343 343 344 347 345 344 343 341 338 336 335 337 337 336 336 335 334 333 332 331 331 330 331 331 331 331 330 329 328 329 329 329 329 330 330 330 329 329 327 325 326
338 338 340 341 340 344 347 347 347 346 347 348 346 343 345 347 346 344 345 345 342 341 341 342 343 342 340 342 344 342 339 337 335 336 337 336 336 335 334 333 332 331 330 330 330 330 330 330 329 329 328 329 329 328 328 329 329 330 331 330 329 328 327
338 340 340 343 343 343 346 348 349 349 348 348 344 344 346 346 345 343 343 342 340 338 337 340 341 338 337 341 343 341 340 338 336 336 336 336 336 335 334 333 333 332 330 328 329 331 331 330 329 330 329 329 328 328 328 328 328 330 332 333 332 331 330
337 340 340 339 341 345 347 348 349 349 347 346 345 346 346 346 343 342 341 339 336 335 338 340 338 337 339 342 341 339 339 338 337 337 336 335 335 333 333 333 333 332 331 330 332 332 332 331 330 329 328 327 328 328 327 327 328 330 332 332 331 330 328
334 337 339 338 339 344 345 345 347 347 345 345 346 345 345 344 343 341 340 337 334 333 338 337 333 336 342 342 339 337 337 335 335 335 335 335 334 333 332 333 334 334 333 334 334 334 333 332 331 329 328 327 327 328 328 328 330 331 331 330 329 327 327
334 334 337 340 341 344 347 346 346 346 345 344 346 345 345 343 342 340 339 335 332 333 335 333 329 333 341 342 338 336 335 333 332 334 334 334 333 332 333 334 334 334 333 334 335 334 333 331 330 329 328 328 328 328 328 329 329 330 329 328 327 325 324
333 333 334 339 343 343 345 347 346 345 345 345 345 345 345 343 342 340 338 334 333 334 333 331 331 334 339 340 337 335 335 333 332 333 334 333 332 332 333 333 333 333 333 334 334 334 332 330 329 329 327 327 327 327 328 329 328 327 326 325 326 325 324
335 336 335 338 342 342 341 344 346 346 345 345 345 345 344 343 342 339 338 336 336 335 333 333 335 337 339 339 336 336 336 334 334 335 334 333 332 332 331 331 332 333 333 333 333 333 331 329 328 328 326 326 327 328 329 328 327 326 325 324 324 325 326
337 337 337 338 340 342 342 344 346 346 347 345 346 346 344 344 343 340 339 338 338 337 334 335 336 337 338 338 336 336 335 334 335 335 333 333 332 331 331 331 332 333 332 333 333 332 330 328 327 327 326 326 328 328 327 326 325 325 325 325 325 325 326
336 336 337 336 336 339 342 346 346 345 346 348 348 347 345 344 343 341 339 339 338 336 336 335 335 335 337 337 336 336 335 334 335 334 332 332 331 330 330 331 332 332 331 332 332 331 329 327 327 326 326 326 327 327 326 326 325 325 325 326 326 326 326
336 336 336 336 336 336 338 344 346 345 347 348 348 349 348 345 341 339 340 340 337 335 335 334 334 335 336 336 336 335 334 334 334 331 330 331 330 329 330 331 332 332 332 332 332 330 328 327 326 326 326 326 327 326 326 327 327 327 326 326 326 325 325
336 336 337 337 338 337 336 338 342 345 346 346 344 345 346 346 342 339 339 338 335 335 335 335 334 334 335 335 335 334 333 332 331 328 327 328 329 329 330 330 331 331 330 330 330 330 329 326 326 326 326 326 326 326 326 328 328 327 327 326 325 323 322
334 334 336 338 338 338 340 339 339 343 346 346 344 343 343 344 341 340 339 337 335 335 335 334 333 331 330 330 331 332 331 329 328 328 327 328 329 329 329 330 330 328 327 328 329 330 329 327 327 327 326 326 327 327 328 328 327 327 327 327 325 322 321
334 333 334 337 338 338 340 343 345 346 348 348 346 344 342 341 339 338 337 335 334 332 330 330 329 328 327 326 327 328 329 328 327 327 327 328 330 329 328 329 328 327 327 327 328 329 329 329 327 327 327 327 326 326 327 327 327 326 327 326 323 321 322
335 333 334 337 338 336 339 347 352 351 351 349 346 342 340 338 336 333 332 332 331 330 329 328 328 327 326 326 326 326 326 326 326 327 327 329 329 328 328 328 327 326 326 327 328 328 327 327 327 326 327 327 325 325 326 326 326 326 325 323 322 322 323
333 333 335 337 336 334 339 348 353 353 351 348 343 339 336 335 333 329 329 330 329 328 329 328 327 327 326 327 327 326 326 326 326 327 328 329 329 329 328 327 327 327 328 329 330 329 328 328 328 327 326 327 326 325 324 325 325 325 323 321 321 322 323
333 332 334 335 336 337 342 349 353 352 350 346 344 340 335 333 331 329 329 329 328 327 328 327 326 327 327 327 327 326 327 327 328 330 330 330 331 330 328 328 328 328 329 329 329 328 328 329 328 326 326 327 327 325 324 325 324 324 323 322 322 323 323
331 331 333 335 337 339 347 353 352 350 348 347 346 342 334 331 331 331 328 327 327 326 325 325 327 326 326 326 326 327 328 329 329 331 332 332 331 330 329 328 327 327 328 327 325 326 327 328 328 327 326 326 326 325 325 325 323 323 325 324 323 323 323
330 330 335 336 333 336 346 350 350 349 349 346 342 338 334 332 331 330 328 327 326 325 324 325 325 325 326 326 327 328 330 329 330 332 333 332 330 329 328 327 326 326 326 325 325 327 327 328 328 328 327 326 326 325 325 324 322 323 324 324 323 323 323
331 330 334 333 330 334 340 344 347 348 346 342 337 334 333 333 330 328 327 328 328 328 329 328 326 326 327 328 328 329 331 332 333 333 334 332 329 328 327 327 327 326 326 326 326 327 327 328 328 328 328 327 325 323 323 323 322 321 322 322 323 323 322
331 329 331 329 328 332 334 337 343 343 339 337 335 333 332 331 329 329 329 328 328 328 329 330 329 329 328 328 329 331 333 334 334 334 332 330 329 328 328 328 327 326 326 326 327 327 327 328 328 328 327 325 324 323 323 323 322 321 321 322 323 322 320
332 331 330 328 330 333 332 333 338 338 335 334 334 333 331 330 331 332 332 331 329 328 330 331 330 329 330 330 331 332 334 335 334 332 331 331 330 329 328 327 326 326 326 326 326 326 327 327 327 326 325 324 324 324 323 323 323 322 322 323 322 320 318
331 330 329 328 331 333 334 335 336 336 335 335 333 333 332 332 332 333 332 332 332 330 331 332 332 333 334 334 333 333 334 334 333 332 332 331 330 328 326 326 326 326 326 326 326 326 325 324 324 325 324 323 323 323 322 322 323 323 323 323 321 318 317
328 327 329 330 329 330 331 333 334 335 335 334 333 334 333 332 330 329 329 331 331 330 332 335 335 335 333 332 332 333 334 333 332 331 330 329 327 326 326 326 326 326 326 325 324 324 323 321 322 322 322 323 323 322 321 322 323 323 322 321 319 317 316
328 328 330 332 332 331 332 332 332 334 334 332 331 332 330 329 328 326 326 329 330 331 333 334 333 331 331 331 333 334 333 332 331 329 328 327 327 327 327 327 327 326 325 324 323 322 321 321 321 320 321 322 322 322 322 322 322 322 321 320 318 315 313
333 333 333 334 335 334 334 333 332 333 333 331 330 329 328 328 327 325 325 326 327 328 331 332 331 330 331 332 332 331 331 331 329 328 328 328 327 326 326 326 325 325 325 324 324 323 322 320 319 320 320 321 321 321 321 321 321 321 320 318 316 313 311
335 335 335 335 335 335 334 333 331 331 330 330 330 328 327 327 326 325 324 324 325 325 328 331 331 330 330 330 330 329 330 329 328 327 328 327 326 325 324 324 324 325 325 325 325 324 321 319 319 320 321 321 321 321 321 321 321 320 319 317 313 310 309
335 334 334 334 333 333 332 331 330 329 329 328 327 327 327 327 326 325 325 325 325 326 326 327 329 330 330 329 329 329 328 328 328 328 327 326 325 324 324 324 324 326 326 325 324 323 320 319 320 321 321 321 321 320 321 320 320 319 317 313 310 308 309
Wind_Speed
30 30 30 34 34 33 37 37 36 34 33 32 31 29 28 28 27 27 25 21 18 16 12 10 9 8 9 9 8 7 5 4 4 4 3 4 4 4 3 4 5 5 6 6 6 8 8 8 9 10 11 12 12 12 12 12 12 12 13 13 13 14 13
28 30 30 33 36 35 38 40 38 36 33 32 30 28 28 29 29 28 26 22 19 17 13 11 10 9 10 10 9 7 5 4 5 5 3 2 3 3 1 4 6 5 6 6 7 8 7 7 9 11 12 12 12 12 12 12 12 13 13 14 15 15 14
25 27 29 33 36 36 38 40 40 37 35 34 33 32 31 31 30 29 26 23 20 18 15 12 12 11 12 12 10 8 7 6 6 5 3 2 2 4 5 6 6 4 5 6 7 7 7 8 10 12 12 13 13 12 12 12 12 13 13 14 15 15 15
26 25 24 28 34 37 37 38 38 38 38 37 36 35 32 31 32 30 26 23 21 19 16 14 14 13 13 12 10 9 8 7 6 6 5 5 6 7 7 5 4 5 5 6 8 8 9 10 11 12 13 13 14 13 13 13 13 14 14 15 15 15 15
27 28 22 22 30 35 36 36 39 41 38 36 37 34 30 31 32 29 26 23 21 19 17 16 16 15 14 12 10 9 8 8 7 6 6 6 7 7 5 4 5 6 7 8 9 10 11 11 12 12 13 14 14 14 13 13 13 14 15 16 15 15 14
26 30 29 25 26 33 39 38 39 41 38 36 37 33 29 31 31 28 26 24 21 20 18 18 17 16 14 12 10 9 8 8 8 7 6 6 6 7 6 5 7 8 9 10 10 11 11 12 12 13 14 14 14 14 15 15 15 15 16 17 17 17 15
22 27 32 32 28 34 42 41 37 37 37 36 37 34 30 29 29 26 24 23 22 21 21 20 18 16 14 12 10 9 9 8 8 7 7 6 5 6 6 8 9 10 10 11 11 12 12 11 12 12 14 15 15 16 17 17 17 17 17 17 18 18 17
16 18 22 27 30 34 39 37 36 38 40 39 38 37 34 30 29 27 23 22 23 23 22 21 19 17 15 12 11 10 9 8 8 8 7 6 7 7 7 9 10 10 11 11 11 12 12 12 13 12 14 15 16 17 18 18 18 17 18 18 19 19 18
8 12 15 18 23 29 35 32 32 36 41 44 42 38 35 33 32 28 24 25 26 25 24 21 20 18 14 12 12 10 9 9 9 9 8 8 7 7 8 9 10 12 12 11 10 11 13 14 14 14 14 16 17 18 18 18 19 19 19 18 19 20 18
3 7 13 15 16 20 34 36 33 34 39 42 39 33 31 33 32 29 28 29 27 25 24 20 19 18 13 11 11 10 9 9 9 10 9 8 8 8 9 8 9 9 9 10 12 13 13 13 13 14 16 18 18 18 19 19 21 22 20 19 19 20 20
5 5 9 15 16 15 31 37 36 37 39 39 33 27 29 33 33 31 31 28 25 23 22 20 19 17 13 11 12 11 11 9 9 10 9 9 9 9 9 10 10 9 8 10 12 13 12 12 14 16 17 18 18 19 20 21 22 24 23 21 20 21 22
9 7 9 14 17 17 26 31 34 38 40 39 32 29 33 37 35 32 30 27 23 21 21 21 21 16 12 13 13 12 12 10 9 10 10 11 11 10 10 11 12 10 9 10 11 13 13 14 16 17 17 18 19 20 20 21 22 24 25 23 20 21 23
9 10 11 12 14 18 22 29 35 38 38 36 34 33 36 37 36 33 31 28 24 20 21 23 21 15 12 15 15 14 13 12 11 11 12 12 12 11 11 11 11 10 11 12 12 13 14 14 15 15 17 19 19 20 21 21 20 22 24 23 19 18 21
11 11 14 15 14 15 16 22 30 34 33 32 34 37 37 35 35 33 32 30 25 21 22 24 21 15 13 16 15 14 14 12 12 13 13 13 13 12 12 12 13 13 13 13 13 13 13 13 15 17 18 18 19 20 20 20 19 20 22 21 18 16 18
13 12 16 19 18 19 21 23 27 30 31 31 34 38 37 35 34 33 33 31 28 26 28 27 21 14 15 18 16 13 14 14 13 15 15 14 13 12 12 13 13 13 13 13 15 14 13 13 16 18 18 17 17 17 18 18 18 18 17 17 16 16 16
17 18 16 19 21 21 23 27 30 31 33 35 37 38 38 37 36 36 35 32 30 31 30 24 16 13 20 23 17 14 16 16 16 17 15 14 13 12 12 12 12 14 14 14 16 16 13 13 15 16 15 15 16 16 15 17 17 15 14 14 15 16 15
18 19 16 17 22 21 20 23 29 35 37 39 40 40 39 37 37 37 34 31 31 31 26 18 13 15 24 24 15 13 17 18 18 18 16 14 13 12 12 12 13 14 14 14 16 16 14 13 14 14 15 15 14 14 16 19 19 17 16 15 13 14 15
16 17 15 12 19 24 26 26 30 35 36 37 39 39 38 38 37 37 34 31 31 29 23 18 18 21 24 20 14 15 19 19 19 18 16 14 13 12 13 14 14 14 14 14 16 15 14 14 14 16 16 14 12 15 18 19 19 18 18 18 16 14 16
14 17 17 15 15 20 25 27 28 30 33 36 38 38 38 40 40 39 35 30 31 29 23 21 23 25 22 17 16 19 21 20 19 18 15 14 13 14 14 14 14 13 14 15 15 16 15 15 16 16 16 14 14 17 19 18 18 19 20 21 20 18 18
14 16 17 17 18 18 20 25 27 28 33 36 37 38 40 41 40 37 33 33 34 29 23 22 23 22 18 17 19 21 20 20 20 18 16 14 14 15 15 14 14 14 15 16 16 17 16 15 16 17 16 17 17 18 19 21 22 22 23 23 21 19 20
14 15 16 17 18 18 18 21 24 27 32 35 35 36 37 39 39 35 33 37 34 22 19 24 24 19 17 19 21 21 19 20 19 17 15 15 15 16 15 14 14 15 16 17 18 18 17 17 17 18 17 17 19 19 20 22 23 23 24 24 21 20 20
12 14 14 14 16 17 18 20 23 26 30 33 35 34 33 35 36 36 38 38 27 19 22 27 25 20 20 21 21 20 19 19 18 16 15 15 16 16 15 16 17 16 16 17 19 19 19 19 19 19 18 17 19 21 19 20 22 23 24 24 22 21 20
10 12 11 9 10 13 16 19 23 28 31 31 32 32 32 33 34 36 38 32 23 22 25 24 21 20 21 21 21 20 19 18 17 16 16 16 17 16 17 18 17 15 15 17 18 18 19 20 19 19 19 17 17 19 19 21 22 22 23 23 21 20 19
7 11 9 6 7 11 15 19 22 27 28 28 29 32 35 36 34 32 29 26 24 26 24 19 19 19 19 20 20 19 18 17 17 16 16 17 17 16 17 18 16 16 18 20 18 17 19 19 19 20 21 18 16 17 20 22 21 20 22 22 19 18 17
7 11 7 4 7 12 15 19 21 22 23 26 29 33 35 36 31 25 23 25 26 25 20 19 20 19 18 19 18 17 17 16 17 18 18 18 18 17 16 18 19 20 22 22 19 17 19 20 20 21 21 18 14 14 17 19 17 18 21 20 16 16 15
9 9 6 7 11 13 16 19 20 21 23 27 32 35 32 29 25 21 23 27 25 20 20 23 22 18 17 18 17 16 17 17 18 20 20 19 18 17 15 17 19 20 20 19 17 18 19 21 20 20 18 17 15 15 17 17 17 17 19 18 15 14 14
10 9 8 10 11 13 16 19 23 26 27 30 34 32 25 22 23 22 24 26 22 20 22 22 20 18 16 16 17 17 17 16 16 19 22 20 18 17 16 15 16 17 17 17 18 19 20 22 23 21 18 17 18 18 17 16 16 16 17 18 15 13 13
12 11 9 10 10 10 11 11 17 26 30 31 31 26 21 23 24 23 24 25 24 23 21 17 17 16 15 16 18 18 18 17 17 20 21 19 18 17 15 15 17 19 20 20 21 21 22 23 24 22 20 19 19 19 18 16 15 14 15 15 14 12 12
12 11 9 11 11 11 10 8 12 21 26 27 25 20 19 25 24 19 20 24 24 22 18 15 15 14 14 15 16 19 21 21 20 20 20 18 18 17 16 18 21 21 21 21 21 22 22 22 23 24 24 22 22 22 21 17 14 13 14 14 14 14 15
14 13 9 7 8 11 13 14 18 22 22 24 25 20 17 22 23 19 19 21 18 14 12 12 11 11 13 13 16 20 22 20 17 17 17 18 20 19 19 20 20 19 19 19 20 21 21 22 24 25 23 20 19 20 19 16 14 14 15 16 17 17 18
14 15 13 11 12 17 21 20 22 24 20 20 26 25 19 20 23 23 21 18 16 14 11 10 11 17 18 17 17 18 18 17 17 16 16 17 19 20 18 16 16 18 18 16 18 20 20 20 21 20 19 18 17 16 16 15 14 14 14 17 19 20 20
14 13 11 10 10 13 19 17 18 23 21 20 25 27 23 19 18 16 14 15 17 17 16 16 20 24 23 21 20 20 20 20 18 16 15 16 16 16 15 14 15 16 16 16 17 18 19 18 18 17 18 17 15 14 14 12 12 13 14 16 20 20 18
8 5 6 7 8 3 7 6 10 18 22 21 22 22 19 15 11 7 7 11 11 13 16 20 22 23 22 22 22 21 20 20 17 14 13 14 13 13 13 13 12 13 15 16 17 17 18 17 16 16 16 15 15 16 15 11 9 11 15 17 20 19 17
5 6 6 9 11 9 7 7 9 14 16 16 17 17 14 9 6 3 4 6 8 11 14 16 18 19 19 19 17 15 15 16 14 13 12 12 14 15 15 14 15 16 18 19 20 21 20 18 17 15 14 14 15 15 13 10 9 12 16 19 20 18 15
10 13 8 7 11 12 13 15 16 14 11 9 8 8 7 6 4 2 1 4 9 10 11 13 14 14 13 11 10 11 13 14 12 11 11 12 12 14 14 14 15 17 19 21 21 21 21 20 20 17 13 12 13 11 9 10 12 15 17 18 17 16 15
12 12 11 11 11 10 13 19 20 13 7 5 5 7 8 7 7 7 6 7 8 8 10 11 11 10 9 8 8 9 10 9 7 8 9 10 11 13 14 14 15 16 19 20 19 19 21 21 18 15 11 12 13 12 11 12 14 16 16 15 15 15 16
12 15 15 14 12 12 13 17 16 11 9 13 14 12 11 11 9 8 6 7 8 9 9 9 10 10 9 8 9 10 10 10 7 7 9 10 13 15 16 16 16 16 17 18 18 19 19 16 12 10 9 9 11 12 12 13 15 15 15 14 13 14 15
12 14 17 17 16 15 14 15 16 16 17 17 14 12 11 11 8 5 3 6 7 6 8 10 11 11 10 9 9 10 11 13 12 11 10 10 11 11 13 15 16 16 16 18 18 16 14 11 8 8 7 7 8 10 11 12 12 12 12 12 13 13 13
Wind_Direction
202 209 201 192 193 191 189 190 192 192 190 188 189 190 193 192 192 196 197 196 196 199 208 217 208 194 192 195 198 202 206 221 231 234 230 231 245 253 245 246 251 258 268 271 268 270 279 299 311 310 309 311 316 318 320 323 325 326 328 328 327 329 329
201 207 204 193 190 191 191 192 192 191 189 188 189 193 198 197 196 198 198 200 199 201 210 211 202 193 188 196 206 209 215 220 230 253 264 251 295 328 280 248 259 259 266 276 279 286 302 308 302 300 304 310 315 317 320 324 324 323 325 327 326 327 328
204 207 206 199 192 192 191 191 193 192 191 193 194 198 202 201 202 202 201 202 199 200 208 205 198 194 188 196 206 212 220 216 216 240 256 243 258 261 256 268 290 303 301 308 309 305 304 296 292 297 303 308 311 315 319 322 323 323 322 321 322 323 322
200 207 208 202 193 191 190 189 192 194 194 198 200 199 202 203 204 204 204 205 201 202 205 199 195 194 193 198 203 207 216 218 220 222 217 219 234 250 266 279 296 305 300 298 297 293 291 289 290 296 299 301 305 310 314 316 317 315 314 313 315 320 318
194 205 212 201 191 193 195 193 197 201 199 201 203 201 203 205 203 200 201 203 204 207 204 195 193 194 195 197 200 203 209 217 230 233 223 220 232 249 270 279 269 271 274 278 281 285 290 289 289 291 291 293 299 304 306 306 303 301 302 304 306 311 310
190 202 208 204 198 199 198 195 199 202 198 198 201 201 203 204 198 194 198 201 203 204 197 191 191 193 195 197 198 204 210 220 230 236 234 227 236 254 265 266 264 266 269 273 274 277 281 284 286 289 292 294 294 294 296 295 295 296 296 296 299 302 299
190 202 204 202 206 208 202 198 198 198 198 199 200 198 199 197 188 186 193 197 199 198 191 189 191 189 194 199 202 209 215 227 236 239 238 235 247 260 253 252 267 279 284 286 283 283 285 287 288 290 293 295 292 290 290 290 293 297 297 295 294 294 294
190 204 210 205 206 203 195 195 199 202 205 206 202 198 195 193 190 191 194 193 193 193 190 190 190 188 193 200 205 212 213 220 233 237 237 236 242 253 258 268 286 295 299 302 295 289 294 295 288 282 283 287 288 289 289 290 293 294 292 292 290 290 293
200 208 217 218 215 198 185 189 197 202 208 206 202 199 198 199 201 200 198 193 189 191 191 190 192 193 197 204 207 211 211 216 225 228 232 235 240 248 252 269 294 299 296 299 291 284 288 290 286 284 289 293 294 294 296 299 299 296 288 283 284 288 292
252 233 208 219 239 203 185 190 190 191 200 200 197 201 204 205 204 199 196 194 190 190 188 188 195 199 203 208 208 210 214 221 223 222 227 232 242 253 251 270 300 298 281 278 281 285 291 295 297 297 299 300 299 298 297 296 297 298 293 283 282 288 291
198 247 225 226 244 199 177 188 196 196 200 201 200 205 204 201 198 195 194 193 191 190 187 185 189 194 205 217 215 212 217 227 225 221 226 229 236 248 250 261 272 268 273 287 293 296 298 296 292 291 294 295 293 294 295 295 296 297 296 291 289 292 294
181 209 239 234 236 210 183 189 201 201 201 206 212 212 204 198 194 190 189 190 189 189 192 191 188 191 209 219 219 220 222 231 229 220 227 234 236 241 245 254 261 267 285 290 285 286 287 286 287 291 295 294 291 292 291 291 292 293 294 294 292 293 296
192 201 230 240 243 228 199 187 191 194 195 201 210 208 199 193 189 187 189 189 186 191 198 198 198 203 205 204 214 227 229 235 234 222 223 231 238 246 249 254 259 262 274 279 279 280 282 288 293 292 291 291 291 290 286 288 293 294 294 294 293 294 295
213 207 221 235 245 237 210 190 192 197 198 199 201 198 191 187 187 189 193 192 187 191 198 198 202 205 198 199 209 222 228 232 232 227 227 230 236 244 249 255 258 262 277 289 288 284 282 286 287 284 284 287 287 287 291 300 302 295 295 301 306 306 303
250 239 220 216 221 224 219 210 205 205 202 197 194 191 188 188 190 192 198 199 194 195 199 201 205 198 195 207 212 212 221 228 228 228 230 234 239 245 253 261 265 269 280 282 280 283 282 279 280 284 290 295 294 295 301 307 302 294 299 315 322 318 313
270 265 241 213 208 212 210 209 212 211 205 199 195 192 190 191 195 198 201 200 197 199 203 207 212 197 197 211 216 210 219 229 228 225 227 232 239 246 255 264 267 269 276 276 277 283 282 277 283 290 294 296 297 299 298 294 296 302 307 314 322 325 324
273 273 261 221 207 207 206 210 212 208 204 201 196 193 192 193 195 197 199 197 195 199 207 214 218 208 206 213 218 213 219 228 226 223 224 229 237 246 252 258 262 267 275 277 277 284 289 290 290 287 286 288 289 291 288 287 296 308 311 308 315 323 323
282 287 286 247 216 210 208 209 206 200 199 199 193 191 191 191 190 189 191 196 197 201 212 215 210 211 211 211 213 213 219 225 223 222 225 230 240 251 257 263 266 268 274 278 281 288 292 288 282 279 286 293 291 284 283 290 301 309 310 308 308 308 309
287 287 289 282 256 229 211 205 202 200 201 198 193 192 193 192 191 191 196 206 206 205 209 205 204 212 211 204 208 215 220 223 220 221 227 234 245 255 261 268 272 274 278 279 280 284 284 280 278 280 287 291 286 281 284 294 303 303 302 301 300 300 302
277 275 273 276 274 258 228 207 200 204 206 202 199 201 203 201 199 201 209 211 202 199 204 202 204 211 205 196 205 214 220 221 219 222 230 236 247 259 264 270 272 276 280 279 277 278 279 278 275 278 285 283 279 284 292 297 299 300 300 298 299 302 302
268 270 268 266 267 266 248 220 208 207 205 204 204 206 206 205 205 210 211 200 192 201 216 207 201 201 195 195 205 213 218 219 221 229 235 237 247 260 267 269 268 270 273 275 275 274 276 277 276 280 286 281 280 289 295 295 297 301 301 300 305 308 302
273 268 264 255 254 260 255 237 225 217 210 209 209 206 203 204 207 208 200 191 196 220 217 198 192 193 197 202 209 214 216 219 226 236 242 241 245 253 261 263 263 266 274 277 273 270 273 275 275 281 284 281 286 294 293 292 296 299 299 302 310 311 303
284 282 276 262 257 261 260 249 234 223 217 209 202 198 199 199 196 194 193 197 211 213 196 186 190 199 205 210 212 215 221 225 230 237 243 243 241 249 264 268 267 271 279 279 272 269 272 272 274 281 279 277 289 295 291 292 297 297 296 299 308 313 309
275 285 276 259 266 270 264 252 235 222 213 203 197 199 202 197 189 190 199 209 211 199 190 193 204 210 214 216 216 221 226 230 235 241 244 242 239 250 266 268 266 272 278 280 277 272 271 270 274 280 275 272 284 291 290 295 299 295 291 295 307 317 313
297 293 289 265 271 274 263 247 232 217 206 202 199 195 191 189 188 192 202 203 197 194 198 206 211 216 220 222 225 228 228 234 242 243 241 240 241 252 263 263 268 278 280 279 275 272 276 277 275 278 279 278 283 289 292 295 293 289 293 301 312 318 313
293 286 292 279 262 258 252 241 227 212 203 198 189 180 179 189 193 191 195 196 193 197 206 212 217 222 223 225 232 236 237 243 245 242 241 241 241 251 262 267 276 283 280 274 271 273 284 285 279 278 281 279 281 289 292 286 278 286 307 320 319 311 307
277 263 260 257 237 230 236 231 220 209 199 191 185 181 183 191 191 189 194 197 199 205 212 218 221 221 222 232 245 250 247 245 249 250 247 240 239 251 262 267 272 273 270 276 280 278 282 287 286 285 283 283 287 291 290 285 282 295 316 323 316 305 301
261 260 242 219 205 218 235 222 198 192 186 183 186 188 187 184 185 192 200 203 208 211 214 220 224 226 239 253 254 248 241 243 255 254 246 243 249 253 252 256 263 266 269 278 284 281 282 288 290 286 281 283 285 283 284 293 299 305 314 316 311 310 309
244 249 214 195 204 214 221 210 183 180 180 180 182 187 188 186 186 192 203 209 212 213 215 224 232 241 255 261 260 254 250 255 259 249 241 246 248 242 248 263 268 270 275 281 282 282 284 288 290 286 283 284 282 276 279 286 290 299 311 313 310 315 318
219 220 200 204 218 195 197 210 199 186 184 183 182 183 181 181 188 204 215 215 215 218 218 220 236 256 261 263 273 271 262 255 248 237 235 242 244 248 261 270 271 274 280 284 285 286 285 286 287 286 286 292 291 283 282 286 288 297 306 306 306 313 318
201 223 232 254 249 212 208 212 194 183 188 191 188 185 176 174 190 209 221 226 234 242 236 228 253 271 271 269 273 271 263 254 243 238 247 256 259 261 260 260 269 278 280 282 287 289 286 288 293 294 298 303 298 286 286 292 294 296 296 299 307 315 319
220 234 229 250 265 225 212 207 180 173 182 188 184 181 179 180 187 202 232 257 258 252 251 260 269 270 265 261 259 258 262 264 257 252 258 260 258 257 261 270 278 277 277 283 287 283 281 288 299 304 306 304 290 281 290 300 296 290 289 297 310 317 321
216 219 202 232 270 234 169 154 125 138 155 166 167 167 173 182 185 199 261 278 267 257 260 263 259 253 249 251 254 257 261 262 256 251 252 251 252 261 273 279 272 268 278 286 284 280 283 292 301 303 305 303 290 284 289 294 290 288 290 299 311 319 326
226 249 247 227 231 221 178 142 106 114 134 140 136 136 140 148 165 201 289 280 255 255 258 247 239 243 252 256 254 251 249 245 238 237 245 254 262 267 266 264 264 271 279 280 281 284 288 293 295 295 301 305 299 292 288 282 282 289 294 302 312 320 329
231 235 235 193 196 208 196 171 151 142 143 132 121 136 151 151 158 170 278 247 221 223 239 245 250 260 262 251 240 239 240 239 239 243 249 253 261 268 269 268 270 273 276 280 285 288 289 291 290 287 285 286 286 285 280 277 282 290 296 304 313 321 331
134 155 163 153 152 156 160 162 161 158 156 154 169 188 183 170 172 183 209 230 226 231 247 251 252 254 240 225 232 238 228 223 233 244 244 249 270 284 285 280 273 273 278 285 288 288 290 294 292 288 282 277 276 278 281 285 291 295 300 308 315 323 332
132 140 143 144 148 147 146 155 162 159 150 154 162 165 160 164 179 192 220 254 263 264 257 234 215 221 226 225 238 237 214 206 229 256 257 264 275 277 276 276 274 272 277 284 288 292 296 298 297 297 295 286 285 289 291 292 295 296 299 306 316 327 335
148 150 144 143 150 153 150 152 154 153 152 153 158 163 169 179 187 187 232 268 266 249 246 235 216 214 221 227 235 236 225 226 244 261 265 267 265 259 262 271 273 273 279 287 293 297 300 301 302 304 299 290 291 294 295 295 294 294 299 307 317 329 337